EW7659 Weather Reports


Display with metric or nautical units.
time (UTC)temp
F
wind
direction
speed
MPH
gust
MPH
rain 1hr
in
rain 24hr
in
rain mn
in
humidity
%
barometer
mb
20260903104929 76 180 0.0 0.0 0.00 0.00 0.00 77 1008.4
20260903104429 76 180 0.0 0.0 0.00 0.00 0.00 77 1008.3
20260903103929 76 180 0.0 0.0 0.00 0.00 0.00 77 1008.3
20260903103428 76 180 0.0 0.0 0.00 0.00 0.00 77 1008.3
20260903103152 76 180 0.0 0.0 0.00 0.00 0.00 76 1008.3
20260903102429 76 180 0.0 0.0 0.00 0.00 0.00 76 1008.3
20260903101929 77 180 0.0 0.0 0.00 0.00 0.00 75 1008.4
20260903101429 77 180 0.0 1.0 0.00 0.00 0.00 75 1008.4
20260903100934 77 180 0.0 1.0 0.00 0.00 0.00 75 1008.4
20260903100430 77 180 0.0 0.0 0.00 0.00 0.00 75 1008.4
20260903095928 77 180 0.0 1.0 0.00 0.00 0.00 75 1008.4
20260903095428 77 180 0.0 1.0 0.00 0.00 0.00 74 1008.4
20260903095148 77 180 0.0 1.0 0.00 0.00 0.00 74 1008.4
20260903094429 77 180 0.0 0.0 0.00 0.00 0.00 74 1008.4
20260903093929 77 180 0.0 0.0 0.00 0.00 0.00 74 1008.4
20260903093433 78 180 0.0 1.0 0.00 0.00 0.00 73 1008.4
20260903093429 77 180 0.0 0.0 0.00 0.00 0.00 73 1008.5
20260903092652 78 180 0.0 1.0 0.00 0.00 0.00 72 1008.3
20260903091929 78 180 0.0 0.0 0.00 0.00 0.00 72 1008.3
20260903091429 78 180 0.0 0.0 0.00 0.00 0.00 71 1008.3
20260903091148 78 180 0.0 0.0 0.00 0.00 0.00 71 1008.2
20260903090429 79 180 0.0 0.0 0.00 0.00 0.00 70 1008.2
20260903085928 79 180 0.0 0.0 0.00 0.00 0.00 70 1008.2
20260903085429 79 180 0.0 0.0 0.00 0.00 0.00 69 1008.2
20260903085149 79 180 0.0 0.0 0.00 0.00 0.00 69 1008.2
20260903084429 80 180 0.0 0.0 0.00 0.00 0.00 68 1008.2
20260903083929 80 180 0.0 0.0 0.00 0.00 0.00 68 1008.2
20260903083429 80 180 0.0 0.0 0.00 0.00 0.00 68 1008.1
20260903083414 80 180 0.0 0.0 0.00 0.00 0.00 68 1008.2
20260903082429 80 180 0.0 0.0 0.00 0.00 0.00 67 1008.2
20260903081929 80 180 0.0 0.0 0.00 0.00 0.00 66 1008.1
20260903081429 81 180 0.0 0.0 0.00 0.00 0.00 66 1008.2
20260903080928 81 180 0.0 0.0 0.00 0.00 0.00 65 1008.2
20260903080646 81 180 0.0 0.0 0.00 0.00 0.00 65 1008.1
20260903075925 81 180 0.0 0.0 0.00 0.00 0.00 65 1008.1
20260903075423 81 180 0.0 0.0 0.00 0.00 0.00 65 1008.2
20260903074921 81 180 0.0 3.0 0.00 0.00 0.00 64 1008.2
20260903074644 81 180 0.0 3.0 0.00 0.00 0.00 64 1008.1
20260903073917 81 180 0.0 0.0 0.00 0.00 0.00 64 1008.1
20260903073416 81 180 0.0 0.0 0.00 0.00 0.00 64 1008.1
20260903072914 82 180 0.0 0.0 0.00 0.00 0.00 63 1008.2
20260903072412 82 180 0.0 0.0 0.00 0.00 0.00 63 1008.1
20260903071911 82 180 0.0 0.0 0.00 0.00 0.00 63 1008.1
20260903071408 82 180 0.0 0.0 0.00 0.00 0.00 63 1008.1
20260903070906 82 180 0.0 0.0 0.00 0.00 0.00 63 1008.0
20260903070405 82 180 0.0 0.0 0.00 0.00 0.00 62 1008.0
20260903065902 82 180 0.0 0.0 0.00 0.00 0.00 62 1008.0
20260903065624 82 180 0.0 0.0 0.00 0.00 0.00 62 1008.0
20260903065124 82 180 0.0 0.0 0.00 0.00 0.00 62 1008.0
20260903064401 82 180 0.0 0.0 0.00 0.00 0.00 62 1008.0
20260903063901 82 180 0.0 0.0 0.00 0.00 0.00 62 1007.9
20260903063400 82 180 0.0 3.0 0.00 0.00 0.00 61 1008.0
20260903062902 83 180 0.0 3.0 0.00 0.00 0.00 61 1007.9
20260903062401 83 180 0.0 4.0 0.00 0.00 0.00 61 1007.8
20260903061901 83 180 0.0 5.0 0.00 0.00 0.00 60 1007.8
20260903061850 83 180 0.0 5.0 0.00 0.00 0.00 60 1007.8
20260903060901 83 173 0.0 3.0 0.00 0.00 0.00 60 1007.7
20260903060401 83 173 0.0 2.0 0.00 0.00 0.00 60 1007.6
20260903055901 83 173 0.0 1.0 0.00 0.00 0.00 59 1007.6
20260903055401 83 173 0.0 0.0 0.00 0.00 0.00 59 1007.6
20260903055118 83 172 0.0 5.0 0.00 0.00 0.00 58 1007.6
20260903054401 84 171 1.0 7.0 0.00 0.00 0.00 58 1007.6
20260903053901 84 171 1.0 7.0 0.00 0.00 0.00 57 1007.5
20260903053401 84 171 0.0 6.0 0.00 0.00 0.00 56 1007.5
20260903052902 84 172 0.0 0.0 0.00 0.00 0.00 56 1007.5
20260903052618 84 173 0.0 5.0 0.00 0.00 0.00 56 1007.5
20260903051852 84 184 0.0 5.0 0.00 0.00 0.00 56 1007.5
20260903051605 84 179 0.0 4.0 0.00 0.00 0.00 56 1007.4
20260903050847 84 180 0.0 0.0 0.00 0.00 0.00 56 1007.4
20260903050346 84 180 0.0 3.0 0.00 0.00 0.00 57 1007.4
20260903045846 84 180 0.0 3.0 0.00 0.00 0.00 57 1007.3
20260903045346 84 180 0.0 0.0 0.00 0.00 0.00 57 1007.3
20260903044846 84 180 0.0 0.0 0.00 0.00 0.00 57 1007.3
20260903044345 83 180 0.0 0.0 0.00 0.00 0.00 58 1007.3
20260903043844 83 180 0.0 0.0 0.00 0.00 0.00 59 1007.2
20260903043344 83 180 0.0 0.0 0.00 0.00 0.00 60 1007.3
20260903043331 83 180 0.0 0.0 0.00 0.00 0.00 60 1007.3
20260903042340 82 180 0.0 0.0 0.00 0.00 0.00 60 1007.3
20260903041839 82 180 0.0 0.0 0.00 0.00 0.00 60 1007.3
20260903041338 82 180 0.0 0.0 0.00 0.00 0.00 60 1007.3
20260903041059 82 180 0.0 0.0 0.00 0.00 0.00 61 1007.3
20260903040334 82 180 0.0 0.0 0.00 0.00 0.00 61 1007.4
20260903035832 83 180 0.0 0.0 0.00 0.00 0.00 60 1007.4
20260903035332 83 180 0.0 0.0 0.00 0.00 0.00 60 1007.5
20260903034832 83 180 0.0 0.0 0.00 0.00 0.00 60 1007.4
20260903034330 83 180 0.0 0.0 0.00 0.00 0.00 59 1007.4
20260903033828 83 180 0.0 0.0 0.00 0.00 0.00 59 1007.4
20260903033542 83 180 0.0 0.0 0.00 0.00 0.00 58 1007.4
20260903033042 84 180 0.0 0.0 0.00 0.00 0.00 58 1007.4
20260903032310 84 180 0.0 0.0 0.00 0.00 0.00 58 1007.4
20260903031804 84 180 0.0 0.0 0.00 0.00 0.00 57 1007.4
20260903031303 85 180 0.0 0.0 0.00 0.00 0.00 57 1007.4
20260903031029 85 180 0.0 0.0 0.00 0.00 0.00 56 1007.4
20260903030303 85 180 0.0 0.0 0.00 0.00 0.00 55 1007.3
20260903030024 85 180 0.0 0.0 0.00 0.00 0.00 55 1007.3
20260903025300 86 180 0.0 0.0 0.00 0.00 0.00 54 1007.3
20260903024802 86 180 0.0 0.0 0.00 0.00 0.00 54 1007.3
20260903024301 87 180 0.0 0.0 0.00 0.00 0.00 53 1007.3
20260903023801 87 180 0.0 0.0 0.00 0.00 0.00 52 1007.3
20260903023259 87 180 0.0 0.0 0.00 0.00 0.00 52 1007.3
20260903022759 88 180 0.0 0.0 0.00 0.00 0.00 51 1007.2
20260903022259 88 180 0.0 0.0 0.00 0.00 0.00 51 1007.0
20260903022015 88 180 0.0 0.0 0.00 0.00 0.00 50 1007.0
20260903021257 89 180 0.0 0.0 0.00 0.00 0.00 50 1006.9
20260903020758 89 180 0.0 0.0 0.00 0.00 0.00 49 1006.8
20260903020257 89 180 0.0 0.0 0.00 0.00 0.00 49 1006.8
20260903020247 90 180 0.0 0.0 0.00 0.00 0.00 48 1006.7
20260903015257 91 180 0.0 0.0 0.00 0.00 0.00 47 1006.8
20260903014758 91 180 0.0 0.0 0.00 0.00 0.00 46 1006.7
20260903014255 91 180 0.0 0.0 0.00 0.00 0.00 46 1006.6
20260903014016 92 180 0.0 0.0 0.00 0.00 0.00 45 1006.6
20260903013255 92 180 0.0 0.0 0.00 0.00 0.00 45 1006.5
20260903012756 92 180 0.0 0.0 0.00 0.00 0.00 45 1006.4
20260903012251 93 180 0.0 0.0 0.00 0.00 0.00 44 1006.4
20260903011751 93 180 0.0 0.0 0.00 0.00 0.00 43 1006.3
20260903011251 93 180 0.0 0.0 0.00 0.00 0.00 43 1006.3
20260903011011 94 180 0.0 0.0 0.00 0.00 0.00 42 1006.3
20260903010251 94 180 0.0 0.0 0.00 0.00 0.00 42 1006.2
20260903005751 94 180 0.0 4.0 0.00 0.00 0.00 41 1006.2
20260903005251 95 180 0.0 4.0 0.00 0.00 0.00 41 1006.2
20260903004752 95 180 0.0 0.0 0.00 0.00 0.00 40 1006.1
20260903004251 95 180 0.0 0.0 0.00 0.00 0.00 40 1006.2
20260903003751 95 180 0.0 0.0 0.00 0.00 0.00 40 1006.2
20260903003731 96 180 0.0 0.0 0.00 0.00 0.00 39 1006.3
20260903003457 96 180 0.0 0.0 0.00 0.00 0.00 39 1006.2
20260903002251 96 180 0.0 3.0 0.00 0.00 0.00 38 1006.3
20260903002012 96 181 0.0 3.0 0.00 0.00 0.00 38 1006.3
20260903001251 96 186 1.0 9.0 0.00 0.00 0.00 38 1006.2
20260903000751 97 186 1.0 9.0 0.00 0.00 0.00 37 1006.3
20260903000251 97 180 0.0 2.0 0.00 0.00 0.00 37 1006.2
20260902235750 97 208 1.0 9.0 0.00 0.00 0.00 37 1006.3
20260902235244 98 181 1.0 9.0 0.00 0.00 0.00 36 1006.3
20260902234742 98 176 0.0 2.0 0.00 0.00 0.00 35 1006.4
20260902234239 98 173 0.0 6.0 0.00 0.00 0.00 35 1006.4
20260902233739 98 161 1.0 9.0 0.00 0.00 0.00 35 1006.3
20260902233240 98 170 1.0 9.0 0.00 0.00 0.00 34 1006.4
20260902232739 98 174 1.0 8.0 0.00 0.00 0.00 34 1006.4
20260902232239 99 169 1.0 10.0 0.00 0.00 0.00 34 1006.4
20260902231739 99 184 2.0 10.0 0.00 0.00 0.00 34 1006.4
20260902231501 99 189 4.0 13.0 0.00 0.00 0.00 33 1006.4
20260902230736 99 169 2.0 13.0 0.00 0.00 0.00 32 1006.4
20260902230234 99 178 1.0 9.0 0.00 0.00 0.00 33 1006.5
20260902225734 99 196 2.0 9.0 0.00 0.00 0.00 33 1006.5
20260902225233 99 155 2.0 10.0 0.00 0.00 0.00 35 1006.6
20260902224953 99 181 2.0 10.0 0.00 0.00 0.00 35 1006.5
20260902224230 99 135 3.0 9.0 0.00 0.00 0.00 35 1006.6
20260902223730 99 148 4.0 12.0 0.00 0.00 0.00 34 1006.5
20260902223231 99 160 3.0 12.0 0.00 0.00 0.00 33 1006.5
20260902222730 100 155 1.0 10.0 0.00 0.00 0.00 34 1006.6
20260902222230 99 194 3.0 12.0 0.00 0.00 0.00 34 1006.5
20260902221731 100 171 3.0 12.0 0.00 0.00 0.00 34 1006.6
20260902221229 100 120 1.0 10.0 0.00 0.00 0.00 34 1006.6
20260902220729 100 126 2.0 11.0 0.00 0.00 0.00 34 1006.7
20260902220229 100 185 4.0 15.0 0.00 0.00 0.00 34 1006.7
20260902215728 100 163 3.0 15.0 0.00 0.00 0.00 35 1006.8
20260902215228 100 172 2.0 12.0 0.00 0.00 0.00 35 1006.8
20260902214728 100 144 1.0 10.0 0.00 0.00 0.00 35 1006.8
20260902214227 100 157 2.0 11.0 0.00 0.00 0.00 35 1006.8
20260902213955 100 178 3.0 11.0 0.00 0.00 0.00 36 1006.9
20260902213449 100 178 2.0 14.0 0.00 0.00 0.00 35 1006.9
20260902212727 100 150 1.0 14.0 0.00 0.00 0.00 35 1006.9
20260902212709 100 138 3.0 15.0 0.00 0.00 0.00 35 1006.9
20260902211725 100 165 3.0 15.0 0.00 0.00 0.00 35 1007.0
20260902211224 101 152 1.0 10.0 0.00 0.00 0.00 34 1007.2
20260902210725 101 167 2.0 11.0 0.00 0.00 0.00 33 1007.3
20260902210223 100 148 3.0 12.0 0.00 0.00 0.00 33 1007.2
20260902205722 100 220 3.0 12.0 0.00 0.00 0.00 33 1007.4
20260902205216 100 187 2.0 11.0 0.00 0.00 0.00 33 1007.4
20260902204710 100 148 2.0 11.0 0.00 0.00 0.00 34 1007.4
20260902204205 100 220 2.0 14.0 0.00 0.00 0.00 33 1007.4
20260902203705 100 174 4.0 14.0 0.00 0.00 0.00 33 1007.6
20260902203205 100 157 5.0 14.0 0.00 0.00 0.00 33 1007.7
20260902202702 100 141 4.0 14.0 0.00 0.00 0.00 33 1007.7
20260902202203 100 193 3.0 14.0 0.00 0.00 0.00 33 1007.8
20260902201703 100 181 3.0 14.0 0.00 0.00 0.00 33 1008.0
20260902201203 100 161 2.0 9.0 0.00 0.00 0.00 34 1007.9
20260902200927 100 157 2.0 10.0 0.00 0.00 0.00 36 1007.9
20260902200202 100 164 2.0 10.0 0.00 0.00 0.00 35 1008.0
20260902195703 100 273 2.0 15.0 0.00 0.00 0.00 35 1008.2
20260902195203 100 151 1.0 15.0 0.00 0.00 0.00 35 1008.2
20260902194703 99 143 1.0 11.0 0.00 0.00 0.00 36 1008.3
20260902194203 99 161 2.0 11.0 0.00 0.00 0.00 36 1008.4
20260902193702 99 171 5.0 12.0 0.00 0.00 0.00 35 1008.5
20260902193203 99 149 4.0 12.0 0.00 0.00 0.00 35 1008.6
20260902192702 99 146 2.0 13.0 0.00 0.00 0.00 36 1008.7
20260902192202 99 157 2.0 14.0 0.00 0.00 0.00 37 1008.8
20260902191708 99 131 1.0 14.0 0.00 0.00 0.00 36 1008.8
20260902191206 99 175 2.0 10.0 0.00 0.00 0.00 35 1008.8
20260902190705 99 173 3.0 10.0 0.00 0.00 0.00 37 1009.0
20260902190659 98 169 2.0 10.0 0.00 0.00 0.00 38 1009.0
20260902185702 99 168 1.0 10.0 0.00 0.00 0.00 36 1009.1
20260902185657 99 161 0.0 5.0 0.00 0.00 0.00 37 1009.1
20260902184703 99 142 1.0 15.0 0.00 0.00 0.00 38 1009.2
20260902184202 99 175 1.0 15.0 0.00 0.00 0.00 38 1009.2
20260902183702 99 173 1.0 7.0 0.00 0.00 0.00 38 1009.3
20260902183202 99 202 2.0 10.0 0.00 0.00 0.00 39 1009.3
20260902182929 98 236 3.0 11.0 0.00 0.00 0.00 37 1009.5
20260902182202 98 169 1.0 11.0 0.00 0.00 0.00 37 1009.5
20260902181703 98 163 0.0 9.0 0.00 0.00 0.00 38 1009.6
20260902181423 98 229 1.0 8.0 0.00 0.00 0.00 39 1009.7
20260902180702 98 176 1.0 9.0 0.00 0.00 0.00 38 1009.7
20260902180202 98 173 1.0 9.0 0.00 0.00 0.00 40 1009.8
20260902175702 97 204 1.0 8.0 0.00 0.00 0.00 42 1009.8
20260902175203 96 245 1.0 8.0 0.00 0.00 0.00 42 1009.9
20260902174930 96 174 3.0 11.0 0.00 0.00 0.00 42 1009.9
20260902174203 96 173 3.0 11.0 0.00 0.00 0.00 42 1010.0
20260902174144 96 166 1.0 7.0 0.00 0.00 0.00 42 1010.1
20260902173202 96 173 2.0 13.0 0.00 0.00 0.00 42 1010.2
20260902172921 96 184 3.0 16.0 0.00 0.00 0.00 43 1010.3
20260902172420 95 154 2.0 16.0 0.00 0.00 0.00 44 1010.3
20260902171702 96 158 2.0 13.0 0.00 0.00 0.00 44 1010.4
20260902171203 96 167 1.0 10.0 0.00 0.00 0.00 43 1010.4
20260902170703 96 175 0.0 9.0 0.00 0.00 0.00 43 1010.5
20260902170202 96 190 0.0 9.0 0.00 0.00 0.00 45 1010.5
20260902165702 95 201 1.0 10.0 0.00 0.00 0.00 45 1010.6
20260902165202 95 202 1.0 10.0 0.00 0.00 0.00 44 1010.6
20260902164702 95 174 1.0 7.0 0.00 0.00 0.00 46 1010.8
20260902164202 94 117 1.0 9.0 0.00 0.00 0.00 46 1010.8
20260902163702 94 175 1.0 9.0 0.00 0.00 0.00 46 1010.8
20260902163425 94 196 1.0 9.0 0.00 0.00 0.00 47 1010.8
20260902162703 94 167 1.0 9.0 0.00 0.00 0.00 48 1010.8
20260902162157 94 169 1.0 9.0 0.00 0.00 0.00 47 1010.8
20260902161651 94 210 0.0 6.0 0.00 0.00 0.00 48 1010.9
20260902161403 93 178 0.0 6.0 0.00 0.00 0.00 49 1010.9
20260902160638 92 170 1.0 9.0 0.00 0.00 0.00 50 1010.9
20260902160132 92 257 2.0 11.0 0.00 0.00 0.00 50 1010.9
20260902155632 92 181 2.0 11.0 0.00 0.00 0.00 50 1011.0
20260902155132 92 251 1.0 9.0 0.00 0.00 0.00 50 1011.0
20260902154632 91 195 2.0 8.0 0.00 0.00 0.00 52 1011.0
20260902154132 91 194 3.0 11.0 0.00 0.00 0.00 53 1011.0
20260902153855 91 161 2.0 11.0 0.00 0.00 0.00 53 1011.0
20260902153132 90 242 2.0 10.0 0.00 0.00 0.00 54 1010.9
20260902152632 90 178 2.0 11.0 0.00 0.00 0.00 54 1011.0
20260902152355 89 181 2.0 11.0 0.00 0.00 0.00 54 1011.0
20260902152126 89 173 2.0 10.0 0.00 0.00 0.00 55 1011.0
20260902151132 89 165 3.0 10.0 0.00 0.00 0.00 55 1011.1
20260902150630 88 186 2.0 7.0 0.00 0.00 0.00 56 1011.1
20260902150130 88 181 1.0 7.0 0.00 0.00 0.00 56 1011.1
20260902145847 88 171 1.0 10.0 0.00 0.00 0.00 57 1011.1
20260902145131 87 182 2.0 14.0 0.00 0.00 0.00 57 1011.1
20260902144859 87 173 1.0 14.0 0.00 0.00 0.00 58 1011.1
20260902144130 86 191 0.0 2.0 0.00 0.00 0.00 59 1011.1
20260902143630 86 169 0.0 5.0 0.00 0.00 0.00 60 1011.1
20260902143130 85 171 0.0 5.0 0.00 0.00 0.00 61 1011.1
20260902142630 85 162 0.0 2.0 0.00 0.00 0.00 61 1011.1
20260902142129 84 182 0.0 9.0 0.00 0.00 0.00 62 1011.1
20260902141631 84 176 1.0 9.0 0.00 0.00 0.00 63 1011.1
20260902141613 83 182 0.0 7.0 0.00 0.00 0.00 63 1011.1
20260902140631 83 169 0.0 6.0 0.00 0.00 0.00 63 1011.0
20260902140131 83 186 0.0 6.0 0.00 0.00 0.00 64 1011.1
20260902135630 83 171 0.0 5.0 0.00 0.00 0.00 65 1011.1
20260902135130 82 167 0.0 5.0 0.00 0.00 0.00 65 1011.1
20260902134630 82 166 0.0 7.0 0.00 0.00 0.00 66 1011.1
20260902134355 81 165 0.0 7.0 0.00 0.00 0.00 66 1011.1
20260902133629 81 172 0.0 1.0 0.00 0.00 0.00 67 1011.1
20260902133130 80 172 0.0 1.0 0.00 0.00 0.00 68 1011.2
20260902132630 80 166 1.0 6.0 0.00 0.00 0.00 69 1011.1
20260902132130 79 165 1.0 6.0 0.00 0.00 0.00 69 1011.0
20260902131852 79 173 0.0 5.0 0.00 0.00 0.00 70 1011.0
20260902131130 79 177 0.0 0.0 0.00 0.00 0.00 70 1011.0
20260902130630 78 175 0.0 4.0 0.00 0.00 0.00 71 1010.9
20260902130130 78 169 0.0 4.0 0.00 0.00 0.00 72 1011.0
20260902125630 78 169 0.0 4.0 0.00 0.00 0.00 72 1011.0
20260902125129 77 167 0.0 3.0 0.00 0.00 0.00 73 1011.0
20260902124630 77 168 1.0 6.0 0.00 0.00 0.00 73 1011.0
20260902124130 77 168 1.0 6.0 0.00 0.00 0.00 74 1010.9
20260902123630 76 169 0.0 4.0 0.00 0.00 0.00 74 1010.9
20260902123130 76 169 0.0 0.0 0.00 0.00 0.00 74 1010.8
20260902122631 76 169 0.0 4.0 0.00 0.00 0.00 73 1010.7
20260902122130 76 169 0.0 4.0 0.00 0.00 0.00 73 1010.7
20260902121630 76 169 0.0 0.0 0.00 0.00 0.00 73 1010.6
20260902121130 76 169 0.0 0.0 0.00 0.00 0.00 73 1010.6
20260902120630 76 169 0.0 0.0 0.00 0.00 0.00 73 1010.5
20260902120130 77 168 0.0 0.0 0.00 0.00 0.00 72 1010.5
20260902115853 77 169 0.0 0.0 0.00 0.00 0.00 72 1010.4
20260902115130 77 169 0.0 0.0 0.00 0.00 0.00 72 1010.4
20260902114630 77 169 0.0 0.0 0.00 0.00 0.00 72 1010.3
20260902114130 77 169 0.0 0.0 0.00 0.00 0.00 72 1010.2
20260902113631 77 169 0.0 0.0 0.00 0.00 0.00 71 1010.2
20260902113130 77 169 0.0 0.0 0.00 0.00 0.00 71 1010.2
20260902112631 77 169 0.0 0.0 0.00 0.00 0.00 70 1010.1
20260902112131 77 169 0.0 0.0 0.00 0.00 0.00 70 1010.0
20260902111630 78 169 0.0 0.0 0.00 0.00 0.00 70 1010.1
20260902111359 78 169 0.0 0.0 0.00 0.00 0.00 70 1010.0
20260902110849 78 169 0.0 1.0 0.00 0.00 0.00 69 1010.0
20260902110128 78 169 0.0 1.0 0.00 0.00 0.00 69 1009.9
20260902105626 78 169 0.0 2.0 0.00 0.00 0.00 69 1009.9